EN

Hourly Weather Abadan

Today, 26 November, Thursday

Time Temperature Precipitation Wind Pressure Humidity
00:00 +19°C° 0 mm 4 mps 761 mmHg 60%
01:00 +19°C° 0 mm 5 mps 761 mmHg 63%
02:00 +19°C° 0 mm 5 mps 760 mmHg 66%
03:00 +19°C° 0 mm 5 mps 760 mmHg 68%
04:00 +20°C° 0 mm 5 mps 760 mmHg 69%
05:00 +20°C° 0 mm 5 mps 761 mmHg 69%
06:00 +20°C° 0 mm 5 mps 761 mmHg 70%
07:00 +22°C° 0 mm 7 mps 761 mmHg 65%
08:00 +23°C° 0 mm 8 mps 761 mmHg 61%
09:00 +24°C° 0 mm 10 mps 761 mmHg 54%
10:00 +26°C° 0 mm 10 mps 761 mmHg 48%
11:00 +27°C° 0 mm 11 mps 761 mmHg 42%
12:00 +27°C° 0 mm 12 mps 760 mmHg 36%
13:00 +27°C° 0 mm 11 mps 760 mmHg 39%
14:00 +27°C° 0 mm 11 mps 759 mmHg 41%
15:00 +26°C° 0 mm 9 mps 759 mmHg 43%
16:00 +26°C° 0.1 mm 9 mps 759 mmHg 49%
17:00 +24°C° 0.1 mm 8 mps 760 mmHg 54%
18:00 +24°C° 0.1 mm 7 mps 760 mmHg 59%
19:00 +24°C° 0 mm 7 mps 760 mmHg 63%
20:00 +24°C° 0 mm 6 mps 760 mmHg 66%
21:00 +23°C° 0 mm 6 mps 760 mmHg 70%
22:00 +23°C° 0 mm 5 mps 761 mmHg 67%
23:00 +23°C° 0 mm 5 mps 761 mmHg 65%

Tomorrow, 27 November, Friday

Time Temperature Precipitation Wind Pressure Humidity
00:00 +23°C° 0 mm 4 mps 761 mmHg 63%
01:00 +24°C° 0 mm 3 mps 761 mmHg 56%
02:00 +22°C° 0 mm 3 mps 761 mmHg 48%
03:00 +23°C° 0 mm 2 mps 761 mmHg 41%
04:00 +23°C° 0 mm 2 mps 762 mmHg 43%
05:00 +22°C° 0 mm 1 mps 762 mmHg 46%
06:00 +22°C° 0 mm 1 mps 763 mmHg 48%
07:00 +23°C° 0.1 mm 2 mps 763 mmHg 52%
08:00 +24°C° 0.1 mm 2 mps 763 mmHg 55%
09:00 +25°C° 0.1 mm 3 mps 764 mmHg 58%
10:00 +25°C° 0.5 mm 4 mps 764 mmHg 58%
11:00 +26°C° 0.5 mm 6 mps 764 mmHg 58%
12:00 +26°C° 0.5 mm 7 mps 764 mmHg 58%
13:00 +26°C° 0.5 mm 8 mps 763 mmHg 60%
14:00 +24°C° 0.5 mm 8 mps 763 mmHg 62%
15:00 +24°C° 0.5 mm 8 mps 763 mmHg 64%
16:00 +24°C° 0.1 mm 8 mps 763 mmHg 65%
17:00 +23°C° 0.1 mm 8 mps 763 mmHg 66%
18:00 +23°C° 0.1 mm 7 mps 764 mmHg 67%
19:00 +22°C° 0.1 mm 7 mps 764 mmHg 67%
20:00 +22°C° 0.1 mm 7 mps 764 mmHg 67%
21:00 +22°C° 0.1 mm 7 mps 764 mmHg 67%
22:00 +21°C° 0.2 mm 6 mps 764 mmHg 67%
23:00 +21°C° 0.2 mm 5 mps 764 mmHg 68%

Day after tomorrow, 28 November, Saturday

Time Temperature Precipitation Wind Pressure Humidity
00:00 +21°C° 0.2 mm 5 mps 764 mmHg 69%
01:00 +21°C° 1.2 mm 4 mps 764 mmHg 75%
02:00 +20°C° 1.2 mm 3 mps 764 mmHg 80%
03:00 +20°C° 1.2 mm 3 mps 764 mmHg 86%
04:00 +19°C° 1 mm 2 mps 764 mmHg 86%
05:00 +19°C° 1 mm 2 mps 764 mmHg 86%
06:00 +19°C° 1 mm 2 mps 764 mmHg 87%
07:00 +19°C° 0.4 mm 3 mps 765 mmHg 85%
08:00 +20°C° 0.4 mm 4 mps 765 mmHg 84%
09:00 +20°C° 0.4 mm 5 mps 765 mmHg 82%
10:00 +21°C° 0.2 mm 5 mps 764 mmHg 80%
11:00 +21°C° 0.2 mm 6 mps 764 mmHg 78%
12:00 +22°C° 0.2 mm 6 mps 764 mmHg 76%
13:00 +22°C° 0.4 mm 6 mps 763 mmHg 73%
14:00 +23°C° 0.4 mm 6 mps 763 mmHg 70%
15:00 +23°C° 0.4 mm 5 mps 762 mmHg 67%
16:00 +22°C° 1.7 mm 5 mps 762 mmHg 73%
17:00 +21°C° 1.7 mm 4 mps 762 mmHg 79%
18:00 +20°C° 1.7 mm 3 mps 762 mmHg 85%
19:00 +21°C° 0.4 mm 4 mps 762 mmHg 83%
20:00 +21°C° 0.4 mm 6 mps 762 mmHg 82%
21:00 +21°C° 0.4 mm 7 mps 762 mmHg 81%
22:00 +21°C° 1 mm 7 mps 762 mmHg 82%
23:00 +21°C° 1 mm 8 mps 762 mmHg 83%

29 November, Sunday

Time Temperature Precipitation Wind Pressure Humidity
00:00 +21°C° 1 mm 8 mps 761 mmHg 84%
01:00 +21°C° 2.1 mm 8 mps 761 mmHg 83%
02:00 +21°C° 2.1 mm 8 mps 761 mmHg 83%
03:00 +21°C° 2.1 mm 7 mps 760 mmHg 83%
04:00 +21°C° 0.7 mm 6 mps 760 mmHg 83%
05:00 +21°C° 0.7 mm 5 mps 760 mmHg 83%
06:00 +21°C° 0.7 mm 4 mps 760 mmHg 83%
07:00 +22°C° 2.6 mm 6 mps 760 mmHg 79%
08:00 +23°C° 2.6 mm 7 mps 761 mmHg 74%
09:00 +24°C° 2.6 mm 8 mps 761 mmHg 70%
10:00 +24°C° 1 mm 8 mps 760 mmHg 66%
11:00 +24°C° 1 mm 8 mps 760 mmHg 62%
12:00 +24°C° 1 mm 8 mps 760 mmHg 59%
13:00 +24°C° 0.2 mm 6 mps 760 mmHg 60%
14:00 +25°C° 0.2 mm 5 mps 760 mmHg 61%
15:00 +25°C° 0.2 mm 3 mps 759 mmHg 62%
16:00 +24°C° 0.2 mm 3 mps 760 mmHg 67%
17:00 +22°C° 0.2 mm 4 mps 760 mmHg 72%
18:00 +21°C° 0.2 mm 4 mps 760 mmHg 77%
19:00 +20°C° 0.1 mm 5 mps 761 mmHg 78%
20:00 +19°C° 0.1 mm 5 mps 761 mmHg 79%
21:00 +17°C° 0.1 mm 5 mps 762 mmHg 79%
22:00 +17°C° 0 mm 5 mps 762 mmHg 80%
23:00 +16°C° 0 mm 5 mps 762 mmHg 80%

30 November, Monday

Time Temperature Precipitation Wind Pressure Humidity
00:00 +16°C° 0 mm 5 mps 762 mmHg 80%
01:00 +16°C° 0 mm 5 mps 762 mmHg 80%
02:00 +16°C° 0 mm 5 mps 762 mmHg 80%
03:00 +17°C° 0 mm 4 mps 762 mmHg 79%
04:00 +15°C° 0 mm 4 mps 763 mmHg 81%
05:00 +15°C° 0 mm 4 mps 763 mmHg 83%
06:00 +15°C° 0 mm 4 mps 763 mmHg 84%
07:00 +17°C° 0 mm 4 mps 764 mmHg 81%
08:00 +18°C° 0 mm 4 mps 764 mmHg 77%
09:00 +19°C° 0 mm 5 mps 764 mmHg 73%
10:00 +20°C° 0 mm 5 mps 764 mmHg 67%
11:00 +21°C° 0 mm 5 mps 764 mmHg 61%
12:00 +22°C° 0 mm 5 mps 764 mmHg 54%
13:00 +22°C° 0 mm 5 mps 763 mmHg 53%
14:00 +22°C° 0 mm 5 mps 763 mmHg 52%
15:00 +22°C° 0 mm 5 mps 762 mmHg 51%
16:00 +21°C° 0 mm 4 mps 762 mmHg 54%
17:00 +21°C° 0 mm 4 mps 762 mmHg 57%
18:00 +20°C° 0 mm 3 mps 762 mmHg 61%
19:00 +19°C° 0 mm 3 mps 763 mmHg 61%
20:00 +19°C° 0 mm 3 mps 763 mmHg 62%
21:00 +19°C° 0 mm 3 mps 763 mmHg 63%
22:00 +18°C° 0 mm 3 mps 763 mmHg 64%
23:00 +18°C° 0 mm 3 mps 763 mmHg 64%

1 December, Tuesday

Time Temperature Precipitation Wind Pressure Humidity
00:00 +18°C° 0 mm 3 mps 763 mmHg 65%
01:00 +17°C° 0 mm 3 mps 763 mmHg 65%
02:00 +17°C° 0 mm 3 mps 763 mmHg 66%
03:00 +17°C° 0 mm 3 mps 762 mmHg 66%
04:00 +16°C° 0 mm 3 mps 763 mmHg 67%
05:00 +16°C° 0 mm 3 mps 763 mmHg 67%
06:00 +16°C° 0 mm 3 mps 763 mmHg 67%
07:00 +17°C° 0 mm 3 mps 763 mmHg 63%
08:00 +17°C° 0 mm 2 mps 763 mmHg 59%
09:00 +18°C° 0 mm 2 mps 764 mmHg 55%
10:00 +19°C° 0 mm 2 mps 763 mmHg 50%
11:00 +20°C° 0 mm 2 mps 763 mmHg 45%
12:00 +21°C° 0 mm 2 mps 763 mmHg 40%
13:00 +21°C° 0 mm 2 mps 762 mmHg 38%
14:00 +23°C° 0 mm 2 mps 762 mmHg 36%
15:00 +23°C° 0 mm 2 mps 762 mmHg 35%
16:00 +23°C° 0 mm 2 mps 762 mmHg 38%
17:00 +21°C° 0 mm 2 mps 762 mmHg 41%
18:00 +21°C° 0 mm 2 mps 762 mmHg 44%
19:00 +20°C° 0 mm 2 mps 763 mmHg 46%
20:00 +20°C° 0 mm 3 mps 763 mmHg 49%
21:00 +19°C° 0 mm 3 mps 763 mmHg 52%
22:00 +19°C° 0 mm 3 mps 763 mmHg 53%
23:00 +18°C° 0 mm 3 mps 763 mmHg 55%
Show more